This is the latest recevied weather packets stored in our database for station/object OZ0AJ-13. If no packets are shown the sender has not sent any weather packets the latest 1 day(s).
| Time | Temp. | Humidity | Pressure | Rain* | Wind** | Luminosity | Snow |
|---|---|---|---|---|---|---|---|
| 1836274702 | 15.56° C | 98% | 1011.6 hPa | 0 mm | 0.45 m/s, 112° | - | - |
| 1836274556 | 15.56° C | 98% | 1011.5 hPa | 0 mm | 0.45 m/s, 138° | - | - |
| 1836274098 | 15.56° C | 98% | 1011.7 hPa | 0 mm | 0.45 m/s, 133° | - | - |
| 1778024430 | 5° C | 83% | 1012.3 hPa | 0 mm | 1.34 m/s, 19° | - | - |
| 1778023827 | 5° C | 83% | 1012.2 hPa | 0 mm | 1.34 m/s, 19° | - | - |
| 1778023223 | 5° C | 84% | 1012.4 hPa | 0 mm | 1.34 m/s, 19° | - | - |
| 1778022619 | 5° C | 84% | 1012.2 hPa | 0 mm | 1.34 m/s, 19° | - | - |
| 1778022035 | 5° C | 84% | 1012.2 hPa | 0 mm | 1.34 m/s, 19° | - | - |
| 1778021431 | 5° C | 84% | 1012.3 hPa | 0 mm | 1.34 m/s, 19° | - | - |
| 1778020827 | 5.56° C | 84% | 1012.3 hPa | 0 mm | 1.34 m/s, 19° | - | - |
| 1778020223 | 5.56° C | 84% | 1012.5 hPa | 0 mm | 1.34 m/s, 19° | - | - |
| 1778019619 | 5.56° C | 83% | 1012.4 hPa | 0 mm | 1.34 m/s, 19° | - | - |
| 1778019035 | 6.11° C | 83% | 1012.4 hPa | 0 mm | 1.34 m/s, 19° | - | - |
| 1778018431 | 6.11° C | 82% | 1012.2 hPa | 0 mm | 1.34 m/s, 19° | - | - |
| 1778017827 | 6.11° C | 82% | 1012.5 hPa | 0 mm | 1.34 m/s, 19° | - | - |
| 1778017223 | 6.67° C | 81% | 1012.4 hPa | 0 mm | 1.34 m/s, 19° | - | - |
| 1778016619 | 6.67° C | 81% | 1012.5 hPa | 0 mm | 1.34 m/s, 19° | - | - |
| 1778016015 | 6.67° C | 81% | 1012.5 hPa | 0 mm | 1.34 m/s, 19° | - | - |
| 1778015432 | 6.67° C | 81% | 1012.4 hPa | 0 mm | 1.34 m/s, 19° | - | - |
| 1778014827 | 7.22° C | 80% | 1012.4 hPa | 0 mm | 1.34 m/s, 19° | - | - |
| 1778014224 | 7.22° C | 80% | 1012.3 hPa | 0 mm | 1.34 m/s, 19° | - | - |
| 1778013620 | 7.22° C | 79% | 1012.3 hPa | 0 mm | 1.34 m/s, 19° | - | - |
| 1778013016 | 7.78° C | 78% | 1012.2 hPa | 0 mm | 1.34 m/s, 19° | - | - |
| 1778012432 | 7.78° C | 77% | 1012.2 hPa | 0 mm | 1.34 m/s, 19° | - | - |
| 1778011828 | 7.78° C | 77% | 1012.3 hPa | 0 mm | 1.34 m/s, 19° | - | - |
* Rain latest hour (hover to see other rain measurements)
** Current wind speed in m/s (hover to see current wind gust speed)